Regional Weather Roundup
Issued by NWS

Home | Current Version | Previous Version | Graphics & Text | Print | Product List | Glossary On
Versions: 1 2 3 4 5 6 7 8 9 10 11 12 13 14 15 16 17 18 19 20 21 22 23 24 25 26 27 28 29 30 31 32 33 34 35 36 37 38 39 40 41 42 43 44 45 46 47 48 49 50
000
ASUS43 KFSD 181302
RWRSD

WEATHER ROUNDUP FOR SOUTH DAKOTA
NATIONAL WEATHER SERVICE SIOUX FALLS SD
700 AM CST THU DEC 18 2014

NOTE: "FAIR" INDICATES FEW OR NO CLOUDS BELOW 12,000 FEET WITH NO
SIGNIFICANT WEATHER AND/OR OBSTRUCTIONS TO VISIBILITY.


SDZ001>005-009-010-012>017-181400-
NORTHWEST AND NORTH CENTRAL SOUTH DAKOTA

CITY           SKY/WX    TMP DP  RH WIND       PRES   REMARKS
BUFFALO          N/A     24  21  88 S6        29.89R WCI  17
FAITH            N/A     22  17  81 S13       30.01R WCI  10
MOBRIDGE       CLOUDY    20  17  88 SE8       30.07S WCI  10
$$

SDZ012>016-024>037-041>051-057-063-072>074-181400-
SOUTHWEST AND SOUTH CENTRAL SOUTH DAKOTA

CITY           SKY/WX    TMP DP  RH WIND       PRES   REMARKS
RAPID CTY ARPT CLOUDY    22  20  92 S7        29.99S FOG     WCI  13
PIERRE         CLOUDY    21  19  92 SE7       30.10S WCI  12
CUSTER         PTCLDY    25  17  72 N3        29.92R
ELLSWORTH AFB  CLOUDY    21  19  93 S5        29.98  FOG     WCI  15
PHILIP         CLOUDY    23  20  88 CALM      30.06S
PINE RIDGE     PTCLDY     7   2  80 CALM      30.01S
WINNER         CLOUDY    25  21  85 SE7       30.10S WCI  17
$$

SDZ004>011-016>023-039-040-181400-
NORTHEAST SOUTH DAKOTA

CITY           SKY/WX    TMP DP  RH WIND       PRES   REMARKS
ABERDEEN       CLOUDY    18  13  80 S7        30.19F WCI   9
WATERTOWN      CLOUDY    17  11  77 S6        30.18R WCI   9
SISSETON         N/A     11   8  88 S8        30.23S WCI  -1
$$

SDZ017-020-022-023-036>040-048>070-181400-
SOUTHEAST SOUTH DAKOTA

CITY           SKY/WX    TMP DP  RH WIND       PRES   REMARKS
SIOUX FALLS    CLOUDY    19  15  84 E6        30.22R WCI  11
HURON          CLOUDY    19  15  84 SE6       30.19S WCI  11
MITCHELL       CLOUDY    21  17  84 SE7       30.21R WCI  12
YANKTON        CLOUDY    21  18  86 E5        30.22S WCI  15
$$

ABBREVIATIONS USED IN REMARKS
   TC - TEMPERATURE IN CELSIUS
  WCI - WIND CHILL INDEX
   HX - HEAT INDEX
  VSB - VISIBILITY




USA.gov is the U.S. government's official web portal to all federal, state and local government web resources and services.